This demonstration page uses our WeatherBlox Daily Observations layout. Learn more.

Left ArrowRight Arrow

53.62937, 11.41316

Hourly Observations for July 17, 2018

Temp ( °F °C ) Dew Point ( °F °C ) Humidity (%) Winds ( mph kmh ) Pressure ( in mb ) Visibility ( mi km ) Precip ( " mm )
6:50 am 06:50 Mostly Sunny 59 15 59 15 100 100 VRB 1 2 29.91 1013 7 11 N/A
7:20 am 07:20 Mostly Sunny 61 16 59 15 94 94 VRB 2 4 29.91 1013 7 11 N/A
7:50 am 07:50 Mostly Sunny 63 17 61 16 94 94 VRB 2 4 29.91 1013 7 11 N/A
8:20 am 08:20 Mostly Sunny 68 20 61 16 78 78 WSW 3 6 29.91 1013 7 11 N/A
8:50 am 08:50 Mostly Sunny 70 21 61 16 73 73 VRB 2 4 29.91 1013 7 11 N/A
9:20 am 09:20 Mostly Sunny 72 22 59 15 65 65 WSW 3 6 29.91 1013 7 11 N/A
9:50 am 09:50 Mostly Sunny 75 24 59 15 57 57 WSW 5 7 29.91 1013 7 11 N/A
10:20 am 10:20 Mostly Sunny 77 25 57 14 51 51 VRB 3 6 29.91 1013 7 11 N/A
10:50 am 10:50 Mostly Sunny 79 26 59 15 51 51 W 3 6 29.91 1013 7 11 N/A
11:20 am 11:20 Mostly Sunny 79 26 57 14 48 48 VRB 3 6 29.91 1013 7 11 N/A
11:50 am 11:50 Mostly Sunny 81 27 57 14 45 45 VRB 2 4 29.91 1013 7 11 N/A
12:20 pm 12:20 Mostly Sunny 81 27 57 14 45 45 VRB 3 6 29.91 1013 7 11 N/A
12:50 pm 12:50 Mostly Sunny 81 27 57 14 45 45 VRB 3 6 29.88 1012 7 11 N/A
1:20 pm 13:20 Mostly Sunny 82 28 55 13 40 40 VRB 3 6 29.88 1012 7 11 N/A
1:50 pm 13:50 Mostly Sunny 84 29 55 13 37 37 WSW 7 11 29.88 1012 7 11 N/A
2:20 pm 14:20 Mostly Sunny 84 29 55 13 37 37 VRB 3 6 29.88 1012 7 11 N/A
2:50 pm 14:50 Mostly Sunny 86 30 55 13 35 35 VRB 3 6 29.88 1012 7 11 N/A
3:20 pm 15:20 Mostly Sunny 82 28 55 13 40 40 VRB 3 6 29.88 1012 7 11 N/A
3:50 pm 15:50 Mostly Sunny 82 28 55 13 40 40 VRB 2 4 29.88 1012 7 11 N/A
4:20 pm 16:20 Mostly Sunny 82 28 57 14 42 42 NNE 7 11 29.88 1012 7 11 N/A
4:50 pm 16:50 Mostly Sunny 82 28 59 15 45 45 NNE 7 11 29.88 1012 7 11 N/A
5:20 pm 17:20 Mostly Sunny 84 29 59 15 43 43 NNE 9 15 29.88 1012 7 11 N/A
5:50 pm 17:50 Mostly Sunny 82 28 57 14 42 42 NE 10 17 29.88 1012 7 11 N/A
6:20 pm 18:20 Mostly Sunny 82 28 57 14 42 42 NE 9 15 29.88 1012 7 11 N/A
6:50 pm 18:50 Mostly Sunny 82 28 55 13 40 40 NNE 8 13 29.88 1012 7 11 N/A
7:20 pm 19:20 Mostly Sunny 82 28 57 14 42 42 NNE 8 13 29.88 1012 7 11 N/A
7:50 pm 19:50 Mostly Sunny 81 27 55 13 42 42 NNE 6 9 29.88 1012 7 11 N/A
8:20 pm 20:20 Mostly Sunny 81 27 57 14 45 45 NNE 5 7 29.88 1012 7 11 N/A
8:50 pm 20:50 Mostly Sunny 79 26 57 14 48 48 N 3 6 29.88 1012 7 11 N/A

Powered by AerisWeather